sat.trackr.live / text

‹ back to catalog

ICEYE-X33

NORAD 60548 · 2024-149CJ

PAYLOAD ACTIVE UNKNOWN

§ Identity

Operator
Country
US
Launch date
2024-08-16
Launch site
AFWTR
Launch vehicle
Mass (kg)
RCS (m²)

External: N2YO · Heavens-Above · Gunter

§ Orbital elements

Epoch: 2026-09-22T16:48:37.463040Z

Period
95.92 min
Inclination
97.7512°
Eccentricity
0.0001221
Mean motion
15.01194543 rev/d
Perigee alt
562.4 km
Apogee alt
564.1 km
Semi-major
6,941.3 km
B*
2.2479e-4
RAAN
344.4639°
Arg perigee
61.2124°
Mean anomaly
298.9223°
Rev number
11,483

§ Raw data

ICEYE-X331 60548U 24149CJ  26265.70043360  .00002823  00000+0  22479-3 0  99982 60548  97.7512 344.4639 0001221  61.2124 298.9223 15.01194543114836

JSON: /api/v1/satellites/60548 · /tle

For live sub-satellite position, see the globe view (requires WebGL).

§ Visibility from observer

Set your observer location to see the next 7 days of passes ≥ 10°. The values pass through the URL so the page stays shareable.

No JS? Fill the form by hand. The geolocation button needs JavaScript.

§ Radio — SatNOGS DB

ModeDescriptionDownlinkUplink
BPSK S-band telemetry 2.276 GHz

1 transmitter · refreshed weekly from db.satnogs.org